Location: Rokycany
(49.7330°N, 13.6000°E)
Time: 02:41:20
(UTC+02:00)

ISS - Pass Details

Date: 28 March 2019
Orbit: 408 x 410 km, 51.6° (Epoch: 26 April)

Event Time Altitude Azimuth Distance (km) Brightness Sun altitude
Rises 20:54:00 0° 281° (W) 2,337 1.1 -22.4°
Reaches altitude 10° 20:56:06 10° 284° (WNW) 1,475 0.0 -22.6°
Enters shadow 20:58:39 46° 309° (NW) 558 -2.8 -23.0°
